Wetterdaten: Woche 05.01.15 - 11.01.15 (KW2)
Datum Zeit Temp. Aussen +5cm Feuchte Auss Luftdruck Regen Sonnenschein Regendauer Solar Windben
05.01.2015 00:00 1,4 C 0,6 C 97 % 1036,0 hPa 0,0 l/m 0,00 h 0,00 h 0 W/m 15,3 km/h (3 Bft)
05.01.2015 01:00 1,6 C 0,7 C 97 % 1035,8 hPa 0,0 l/m 0,00 h 0,00 h 0 W/m 12,6 km/h (3 Bft)
05.01.2015 02:00 1,8 C 1,1 C 97 % 1035,4 hPa 0,0 l/m 0,00 h 0,00 h 0 W/m 12,4 km/h (3 Bft)
05.01.2015 03:00 1,7 C 0,6 C 97 % 1035,0 hPa 0,0 l/m 0,00 h 0,00 h 0 W/m 10,5 km/h (2 Bft)
05.01.2015 04:00 0,8 C -1,3 C 97 % 1034,8 hPa 0,0 l/m 0,00 h 0,00 h 0 W/m 7,1 km/h (2 Bft)
05.01.2015 05:00 0,0 C -1,9 C 97 % 1034,4 hPa 0,0 l/m 0,00 h 0,00 h 0 W/m 7,2 km/h (2 Bft)
05.01.2015 06:00 -0,1 C -1,0 C 97 % 1034,3 hPa 0,0 l/m 0,00 h 0,00 h 0 W/m 5,8 km/h (2 Bft)
05.01.2015 07:00 0,4 C -0,1 C 97 % 1034,2 hPa 0,0 l/m 0,00 h 0,00 h 0 W/m 7,3 km/h (2 Bft)
05.01.2015 08:00 0,6 C -0,3 C 97 % 1033,8 hPa 0,0 l/m 0,07 h 0,00 h 9 W/m 7,1 km/h (2 Bft)
05.01.2015 09:00 0,3 C -0,8 C 97 % 1033,4 hPa 0,0 l/m 0,43 h 0,00 h 49 W/m 7,3 km/h (2 Bft)
05.01.2015 10:00 0,7 C 0,3 C 97 % 1033,2 hPa 0,0 l/m 1,00 h 0,00 h 133 W/m 10,2 km/h (2 Bft)
05.01.2015 11:00 2,5 C 1,4 C 96 % 1032,7 hPa 0,0 l/m 1,00 h 0,00 h 207 W/m 13,3 km/h (3 Bft)
05.01.2015 12:00 4,3 C 2,5 C 86 % 1032,0 hPa 0,0 l/m 0,98 h 0,00 h 230 W/m 15,5 km/h (3 Bft)
05.01.2015 13:00 4,6 C 3,0 C 83 % 1031,5 hPa 0,0 l/m 0,63 h 0,00 h 152 W/m 17,4 km/h (3 Bft)
05.01.2015 14:00 3,8 C 2,6 C 86 % 1031,2 hPa 0,0 l/m 0,00 h 0,00 h 42 W/m 13,4 km/h (3 Bft)
05.01.2015 15:00 3,5 C 2,6 C 88 % 1030,6 hPa 0,0 l/m 0,00 h 0,00 h 32 W/m 7,6 km/h (2 Bft)
05.01.2015 16:00 3,6 C 2,3 C 89 % 1030,1 hPa 0,0 l/m 0,03 h 0,00 h 11 W/m 11,2 km/h (2 Bft)
05.01.2015 17:00 3,6 C 2,2 C 89 % 1029,8 hPa 0,0 l/m 0,00 h 0,00 h 0 W/m 5,9 km/h (2 Bft)
05.01.2015 18:00 3,4 C 1,7 C 89 % 1029,3 hPa 0,0 l/m 0,00 h 0,00 h 0 W/m 8,4 km/h (2 Bft)
05.01.2015 19:00 3,1 C 1,6 C 89 % 1028,9 hPa 0,0 l/m 0,00 h 0,00 h 0 W/m 9,4 km/h (2 Bft)
05.01.2015 20:00 3,4 C 2,1 C 86 % 1028,5 hPa 0,0 l/m 0,00 h 0,00 h 0 W/m 10,6 km/h (2 Bft)
05.01.2015 21:00 3,3 C 1,6 C 85 % 1028,1 hPa 0,0 l/m 0,00 h 0,00 h 0 W/m 6,7 km/h (2 Bft)
05.01.2015 22:00 2,9 C 1,5 C 86 % 1028,0 hPa 0,0 l/m 0,00 h 0,00 h 0 W/m 6,9 km/h (2 Bft)
05.01.2015 23:00 2,6 C 1,4 C 86 % 1027,9 hPa 0,0 l/m 0,00 h 0,00 h 0 W/m 8,7 km/h (2 Bft)
06.01.2015 00:00 2,2 C 1,1 C 88 % 1027,5 hPa 0,0 l/m 0,00 h 0,00 h 0 W/m 8,9 km/h (2 Bft)
06.01.2015 01:00 1,7 C 0,6 C 89 % 1026,9 hPa 0,0 l/m 0,00 h 0,00 h 0 W/m 12,4 km/h (3 Bft)
06.01.2015 02:00 1,1 C 0,0 C 90 % 1026,4 hPa 0,0 l/m 0,00 h 0,00 h 0 W/m 10,1 km/h (2 Bft)
06.01.2015 03:00 0,6 C -1,0 C 91 % 1025,8 hPa 0,0 l/m 0,00 h 0,00 h 0 W/m 10,7 km/h (2 Bft)
06.01.2015 04:00 -0,2 C -1,8 C 92 % 1025,4 hPa 0,0 l/m 0,00 h 0,00 h 0 W/m 8,8 km/h (2 Bft)
06.01.2015 05:00 -0,7 C -2,2 C 93 % 1024,8 hPa 0,0 l/m 0,00 h 0,00 h 0 W/m 9,7 km/h (2 Bft)
06.01.2015 06:00 -1,0 C -2,2 C 93 % 1024,2 hPa 0,0 l/m 0,00 h 0,00 h 0 W/m 11,4 km/h (2 Bft)
06.01.2015 07:00 -1,1 C -2,2 C 94 % 1023,7 hPa 0,0 l/m 0,00 h 0,00 h 0 W/m 14,6 km/h (3 Bft)
06.01.2015 08:00 -0,9 C -1,9 C 94 % 1023,1 hPa 0,0 l/m 0,13 h 0,00 h 10 W/m 16,4 km/h (3 Bft)
06.01.2015 09:00 -0,8 C -1,5 C 94 % 1023,0 hPa 0,0 l/m 0,03 h 0,00 h 42 W/m 15,9 km/h (3 Bft)
06.01.2015 10:00 -0,3 C -0,8 C 93 % 1022,6 hPa 0,0 l/m 0,37 h 0,00 h 93 W/m 16,9 km/h (3 Bft)
06.01.2015 11:00 0,5 C 0,1 C 90 % 1022,2 hPa 0,0 l/m 0,97 h 0,00 h 154 W/m 17,1 km/h (3 Bft)
06.01.2015 12:00 1,8 C 1,1 C 85 % 1021,4 hPa 0,0 l/m 0,97 h 0,00 h 212 W/m 17,1 km/h (3 Bft)
06.01.2015 13:00 3,2 C 2,2 C 80 % 1021,0 hPa 0,0 l/m 1,00 h 0,00 h 200 W/m 14,6 km/h (3 Bft)
06.01.2015 14:00 3,3 C 2,2 C 80 % 1020,3 hPa 0,0 l/m 1,00 h 0,00 h 135 W/m 15,3 km/h (3 Bft)
06.01.2015 15:00 3,3 C 1,9 C 80 % 1020,5 hPa 0,0 l/m 0,40 h 0,00 h 66 W/m 13,6 km/h (3 Bft)
06.01.2015 16:00 2,8 C 0,6 C 83 % 1021,0 hPa 0,0 l/m 0,20 h 0,00 h 17 W/m 9,3 km/h (2 Bft)
06.01.2015 17:00 2,7 C 1,7 C 83 % 1021,4 hPa 0,0 l/m 0,00 h 0,00 h 0 W/m 15,7 km/h (3 Bft)
06.01.2015 18:00 3,2 C 2,1 C 85 % 1021,3 hPa 0,0 l/m 0,00 h 0,00 h 0 W/m 11,7 km/h (2 Bft)
06.01.2015 19:00 3,4 C 2,2 C 88 % 1021,5 hPa 0,0 l/m 0,00 h 0,00 h 0 W/m 13,0 km/h (3 Bft)
06.01.2015 20:00 3,7 C 2,6 C 89 % 1021,6 hPa 0,0 l/m 0,00 h 0,00 h 0 W/m 15,9 km/h (3 Bft)
06.01.2015 21:00 4,1 C 2,8 C 91 % 1021,7 hPa 0,0 l/m 0,00 h 0,00 h 0 W/m 19,0 km/h (3 Bft)
06.01.2015 22:00 4,0 C 2,4 C 93 % 1022,3 hPa 0,4 l/m 0,00 h 0,93 h 0 W/m 23,5 km/h (4 Bft)
06.01.2015 23:00 3,9 C 2,4 C 95 % 1022,9 hPa 0,2 l/m 0,00 h 0,70 h 0 W/m 28,3 km/h (4 Bft)
07.01.2015 00:00 3,8 C 2,8 C 96 % 1023,5 hPa 0,0 l/m 0,00 h 0,30 h 0 W/m 23,3 km/h (4 Bft)
07.01.2015 01:00 4,1 C 2,8 C 97 % 1024,0 hPa 0,2 l/m 0,00 h 0,37 h 0 W/m 14,7 km/h (3 Bft)
07.01.2015 02:00 4,2 C 2,8 C 97 % 1024,6 hPa 0,0 l/m 0,00 h 0,23 h 0 W/m 16,2 km/h (3 Bft)
07.01.2015 03:00 4,2 C 2,8 C 97 % 1025,3 hPa 0,0 l/m 0,00 h 0,07 h 0 W/m 14,1 km/h (3 Bft)
07.01.2015 04:00 4,3 C 2,8 C 98 % 1026,0 hPa 0,0 l/m 0,00 h 0,00 h 0 W/m 15,0 km/h (3 Bft)
07.01.2015 05:00 3,9 C 2,0 C 98 % 1026,3 hPa 0,0 l/m 0,00 h 0,00 h 0 W/m 13,3 km/h (3 Bft)
07.01.2015 06:00 3,5 C 2,1 C 97 % 1026,4 hPa 0,0 l/m 0,00 h 0,00 h 0 W/m 12,9 km/h (3 Bft)
07.01.2015 07:00 3,3 C 2,0 C 98 % 1027,1 hPa 0,0 l/m 0,00 h 0,00 h 0 W/m 14,6 km/h (3 Bft)
07.01.2015 08:00 3,1 C 1,4 C 98 % 1027,9 hPa 0,0 l/m 0,13 h 0,00 h 11 W/m 12,0 km/h (2 Bft)
07.01.2015 09:00 2,5 C 1,1 C 98 % 1028,2 hPa 0,0 l/m 1,00 h 0,00 h 58 W/m 10,3 km/h (2 Bft)
07.01.2015 10:00 2,8 C 1,8 C 98 % 1028,5 hPa 0,0 l/m 0,97 h 0,00 h 135 W/m 13,4 km/h (3 Bft)
07.01.2015 11:00 4,2 C 3,0 C 98 % 1028,3 hPa 0,0 l/m 1,00 h 0,00 h 203 W/m 16,4 km/h (3 Bft)
07.01.2015 12:00 5,7 C 3,8 C 97 % 1027,8 hPa 0,0 l/m 0,97 h 0,00 h 238 W/m 19,1 km/h (3 Bft)
07.01.2015 13:00 6,7 C 4,4 C 88 % 1027,4 hPa 0,0 l/m 1,00 h 0,00 h 216 W/m 23,6 km/h (4 Bft)
07.01.2015 14:00 6,9 C 4,4 C 82 % 1027,3 hPa 0,0 l/m 0,93 h 0,00 h 147 W/m 20,5 km/h (4 Bft)
07.01.2015 15:00 6,2 C 3,9 C 83 % 1027,3 hPa 0,0 l/m 0,53 h 0,00 h 71 W/m 18,7 km/h (3 Bft)
07.01.2015 16:00 4,8 C 2,7 C 86 % 1027,4 hPa 0,0 l/m 0,10 h 0,00 h 16 W/m 19,8 km/h (3 Bft)
07.01.2015 17:00 3,6 C 1,6 C 88 % 1027,4 hPa 0,0 l/m 0,00 h 0,00 h 0 W/m 16,0 km/h (3 Bft)
07.01.2015 18:00 2,9 C 1,2 C 90 % 1027,0 hPa 0,0 l/m 0,00 h 0,00 h 0 W/m 15,4 km/h (3 Bft)
07.01.2015 19:00 2,6 C 1,1 C 90 % 1026,9 hPa 0,0 l/m 0,00 h 0,00 h 0 W/m 18,3 km/h (3 Bft)
07.01.2015 20:00 2,4 C 1,1 C 89 % 1026,8 hPa 0,0 l/m 0,00 h 0,00 h 0 W/m 17,9 km/h (3 Bft)
07.01.2015 21:00 2,2 C 0,6 C 89 % 1026,3 hPa 0,0 l/m 0,00 h 0,00 h 0 W/m 17,4 km/h (3 Bft)
07.01.2015 22:00 1,9 C 0,9 C 89 % 1026,1 hPa 0,0 l/m 0,00 h 0,00 h 0 W/m 15,2 km/h (3 Bft)
07.01.2015 23:00 1,9 C 1,0 C 89 % 1025,5 hPa 0,0 l/m 0,00 h 0,00 h 0 W/m 18,8 km/h (3 Bft)
08.01.2015 00:00 2,1 C 1,1 C 89 % 1025,3 hPa 0,0 l/m 0,00 h 0,10 h 0 W/m 13,5 km/h (3 Bft)
08.01.2015 01:00 2,6 C 1,7 C 90 % 1024,5 hPa 0,2 l/m 0,00 h 0,23 h 0 W/m 15,2 km/h (3 Bft)
08.01.2015 02:00 3,1 C 1,7 C 91 % 1024,3 hPa 0,6 l/m 0,00 h 0,87 h 0 W/m 11,8 km/h (2 Bft)
08.01.2015 03:00 3,5 C 2,2 C 94 % 1023,4 hPa 0,2 l/m 0,00 h 0,93 h 0 W/m 16,1 km/h (3 Bft)
08.01.2015 04:00 4,3 C 3,0 C 96 % 1022,7 hPa 0,4 l/m 0,00 h 0,93 h 0 W/m 18,1 km/h (3 Bft)
08.01.2015 05:00 5,1 C 3,5 C 96 % 1022,2 hPa 1,2 l/m 0,00 h 1,00 h 0 W/m 24,5 km/h (4 Bft)
08.01.2015 06:00 5,4 C 3,9 C 96 % 1021,9 hPa 0,4 l/m 0,00 h 0,83 h 0 W/m 21,9 km/h (4 Bft)
08.01.2015 07:00 5,7 C 4,2 C 97 % 1021,7 hPa 0,2 l/m 0,00 h 0,53 h 0 W/m 23,8 km/h (4 Bft)
08.01.2015 08:00 6,1 C 4,5 C 97 % 1021,4 hPa 0,0 l/m 0,00 h 0,97 h 6 W/m 22,5 km/h (4 Bft)
08.01.2015 09:00 6,4 C 5,0 C 98 % 1021,0 hPa 0,2 l/m 0,00 h 1,00 h 17 W/m 20,1 km/h (4 Bft)
08.01.2015 10:00 6,9 C 5,6 C 98 % 1020,3 hPa 0,0 l/m 0,00 h 1,00 h 29 W/m 21,0 km/h (4 Bft)
08.01.2015 11:00 7,3 C 5,9 C 98 % 1019,7 hPa 0,4 l/m 0,00 h 1,00 h 37 W/m 24,9 km/h (4 Bft)
08.01.2015 12:00 7,6 C 6,1 C 98 % 1018,6 hPa 2,2 l/m 0,00 h 0,98 h 23 W/m 31,8 km/h (5 Bft)
08.01.2015 13:00 8,0 C 6,6 C 98 % 1017,6 hPa 1,8 l/m 0,00 h 0,93 h 34 W/m 31,3 km/h (5 Bft)
08.01.2015 14:00 8,4 C 6,8 C 98 % 1016,6 hPa 1,8 l/m 0,00 h 0,90 h 24 W/m 30,5 km/h (5 Bft)
08.01.2015 15:00 8,7 C 7,2 C 98 % 1016,1 hPa 2,4 l/m 0,00 h 1,00 h 12 W/m 33,7 km/h (5 Bft)
08.01.2015 16:00 8,7 C 7,2 C 98 % 1015,9 hPa 1,8 l/m 0,00 h 1,00 h 4 W/m 28,5 km/h (4 Bft)
08.01.2015 17:00 7,2 C 5,4 C 97 % 1018,1 hPa 2,4 l/m 0,00 h 1,00 h 0 W/m 29,6 km/h (5 Bft)
08.01.2015 18:00 6,0 C 4,5 C 96 % 1021,0 hPa 0,2 l/m 0,00 h 0,57 h 0 W/m 24,9 km/h (4 Bft)
08.01.2015 19:00 5,6 C 4,1 C 97 % 1023,2 hPa 0,0 l/m 0,00 h 0,00 h 0 W/m 22,1 km/h (4 Bft)
08.01.2015 20:00 5,4 C 4,1 C 97 % 1025,0 hPa 0,0 l/m 0,00 h 0,00 h 0 W/m 25,9 km/h (4 Bft)
08.01.2015 21:00 5,5 C 4,3 C 97 % 1026,1 hPa 0,0 l/m 0,00 h 0,00 h 0 W/m 23,8 km/h (4 Bft)
08.01.2015 22:00 6,0 C 4,8 C 97 % 1026,6 hPa 0,0 l/m 0,00 h 0,00 h 0 W/m 27,5 km/h (4 Bft)
08.01.2015 23:00 6,3 C 4,9 C 96 % 1027,1 hPa 0,0 l/m 0,00 h 0,00 h 0 W/m 23,8 km/h (4 Bft)
09.01.2015 00:00 6,1 C 4,5 C 95 % 1026,3 hPa 0,0 l/m 0,00 h 0,00 h 0 W/m 21,7 km/h (4 Bft)
09.01.2015 01:00 5,8 C 4,0 C 95 % 1025,7 hPa 0,0 l/m 0,00 h 0,00 h 0 W/m 19,9 km/h (4 Bft)
09.01.2015 02:00 5,9 C 4,6 C 95 % 1025,9 hPa 0,0 l/m 0,00 h 0,00 h 0 W/m 22,7 km/h (4 Bft)
09.01.2015 03:00 6,6 C 5,2 C 95 % 1026,2 hPa 0,0 l/m 0,00 h 0,00 h 0 W/m 28,2 km/h (4 Bft)
09.01.2015 04:00 7,1 C 5,6 C 93 % 1024,5 hPa 0,0 l/m 0,00 h 0,00 h 0 W/m 32,5 km/h (5 Bft)
09.01.2015 05:00 7,2 C 5,8 C 91 % 1021,5 hPa 0,0 l/m 0,00 h 0,00 h 0 W/m 38,6 km/h (5 Bft)
09.01.2015 06:00 7,7 C 6,1 C 87 % 1021,4 hPa 0,0 l/m 0,00 h 0,00 h 0 W/m 39,6 km/h (6 Bft)
09.01.2015 07:00 7,8 C 6,1 C 84 % 1019,9 hPa 0,0 l/m 0,00 h 0,00 h 0 W/m 41,9 km/h (6 Bft)
09.01.2015 08:00 7,8 C 6,1 C 87 % 1018,9 hPa 0,0 l/m 0,00 h 0,00 h 4 W/m 54,8 km/h (7 Bft)
09.01.2015 09:00 7,9 C 6,6 C 90 % 1018,1 hPa 0,0 l/m 0,00 h 0,00 h 16 W/m 55,4 km/h (7 Bft)
09.01.2015 10:00 8,1 C 6,7 C 92 % 1017,4 hPa 0,0 l/m 0,00 h 0,00 h 26 W/m 52,9 km/h (7 Bft)
09.01.2015 11:00 8,4 C 7,3 C 95 % 1016,8 hPa 0,0 l/m 0,00 h 0,00 h 46 W/m 48,5 km/h (6 Bft)
09.01.2015 12:00 9,3 C 8,3 C 95 % 1016,8 hPa 0,0 l/m 0,00 h 0,00 h 51 W/m 49,9 km/h (6 Bft)
09.01.2015 13:00 10,2 C 9,1 C 93 % 1016,2 hPa 0,0 l/m 0,00 h 0,00 h 64 W/m 44,6 km/h (6 Bft)
09.01.2015 14:00 10,7 C 9,4 C 91 % 1016,2 hPa 0,0 l/m 0,00 h 0,00 h 48 W/m 40,8 km/h (6 Bft)
09.01.2015 15:00 11,0 C 9,4 C 89 % 1015,9 hPa 0,0 l/m 0,00 h 0,00 h 21 W/m 41,2 km/h (6 Bft)
09.01.2015 16:00 11,0 C 9,3 C 88 % 1017,7 hPa 0,0 l/m 0,00 h 0,00 h 6 W/m 27,1 km/h (4 Bft)
09.01.2015 17:00 10,8 C 8,5 C 85 % 1017,7 hPa 0,2 l/m 0,00 h 0,33 h 0 W/m 31,6 km/h (5 Bft)
09.01.2015 18:00 9,0 C 6,2 C 87 % 1016,9 hPa 2,2 l/m 0,00 h 0,95 h 0 W/m 17,3 km/h (3 Bft)
09.01.2015 19:00 8,2 C 6,4 C 92 % 1015,3 hPa 2,0 l/m 0,00 h 0,90 h 0 W/m 12,6 km/h (3 Bft)
09.01.2015 20:00 9,0 C 7,4 C 96 % 1013,4 hPa 1,4 l/m 0,00 h 0,87 h 0 W/m 20,8 km/h (4 Bft)
09.01.2015 21:00 10,0 C 8,5 C 98 % 1012,4 hPa 0,4 l/m 0,00 h 0,70 h 0 W/m 37,7 km/h (5 Bft)
09.01.2015 22:00 11,5 C 9,9 C 98 % 1012,3 hPa 0,6 l/m 0,00 h 0,77 h 0 W/m 45,9 km/h (6 Bft)
09.01.2015 23:00 12,5 C 10,9 C 98 % 1012,5 hPa 0,0 l/m 0,00 h 0,17 h 0 W/m 42,6 km/h (6 Bft)
10.01.2015 00:00 13,3 C 11,7 C 96 % 1012,5 hPa 0,0 l/m 0,00 h 0,00 h 0 W/m 39,0 km/h (6 Bft)
10.01.2015 01:00 13,7 C 11,7 C 92 % 1012,6 hPa 0,0 l/m 0,00 h 0,00 h 0 W/m 42,4 km/h (6 Bft)
10.01.2015 02:00 13,7 C 11,7 C 91 % 1012,9 hPa 0,0 l/m 0,00 h 0,00 h 0 W/m 46,3 km/h (6 Bft)
10.01.2015 03:00 13,4 C 11,7 C 90 % 1013,2 hPa 0,0 l/m 0,00 h 0,00 h 0 W/m 46,4 km/h (6 Bft)
10.01.2015 04:00 13,2 C 11,7 C 90 % 1012,7 hPa 0,0 l/m 0,00 h 0,00 h 0 W/m 44,5 km/h (6 Bft)
10.01.2015 05:00 13,1 C 11,6 C 91 % 1012,0 hPa 0,0 l/m 0,00 h 0,00 h 0 W/m 49,2 km/h (6 Bft)
10.01.2015 06:00 12,7 C 11,1 C 90 % 1011,4 hPa 0,0 l/m 0,00 h 0,00 h 0 W/m 57,9 km/h (7 Bft)
10.01.2015 07:00 12,7 C 11,1 C 86 % 1010,9 hPa 0,0 l/m 0,00 h 0,00 h 0 W/m 55,7 km/h (7 Bft)
10.01.2015 08:00 12,7 C 11,1 C 83 % 1010,9 hPa 0,0 l/m 0,00 h 0,00 h 5 W/m 54,3 km/h (7 Bft)
10.01.2015 09:00 12,6 C 11,0 C 82 % 1010,7 hPa 0,0 l/m 0,00 h 0,00 h 14 W/m 56,2 km/h (7 Bft)
10.01.2015 10:00 12,6 C 11,1 C 83 % 1009,5 hPa 0,0 l/m 0,00 h 0,00 h 57 W/m 59,7 km/h (7 Bft)
10.01.2015 11:00 12,6 C 11,2 C 84 % 1009,3 hPa 0,0 l/m 0,17 h 0,00 h 96 W/m 60,9 km/h (7 Bft)
10.01.2015 12:00 12,5 C 11,2 C 86 % 1008,6 hPa 0,0 l/m 0,28 h 0,00 h 90 W/m 60,9 km/h (7 Bft)
10.01.2015 13:00 11,7 C 10,1 C 92 % 1008,2 hPa 0,0 l/m 0,00 h 0,70 h 53 W/m 52,3 km/h (7 Bft)
10.01.2015 14:00 11,6 C 10,0 C 94 % 1007,4 hPa 0,2 l/m 0,00 h 0,93 h 51 W/m 51,5 km/h (7 Bft)
10.01.2015 15:00 11,8 C 10,1 C 94 % 1007,5 hPa 2,0 l/m 0,00 h 1,00 h 26 W/m 52,1 km/h (7 Bft)
10.01.2015 16:00 8,9 C 6,9 C 92 % 1010,2 hPa 0,4 l/m 0,00 h 0,47 h 8 W/m 34,7 km/h (5 Bft)
10.01.2015 17:00 8,1 C 6,6 C 91 % 1011,8 hPa 0,0 l/m 0,00 h 0,00 h 0 W/m 29,0 km/h (5 Bft)
10.01.2015 18:00 7,8 C 5,8 C 87 % 1013,2 hPa 0,0 l/m 0,00 h 0,00 h 0 W/m 22,9 km/h (4 Bft)
10.01.2015 19:00 7,1 C 4,9 C 80 % 1014,2 hPa 0,0 l/m 0,00 h 0,00 h 0 W/m 28,0 km/h (4 Bft)
10.01.2015 20:00 6,2 C 4,1 C 76 % 1015,0 hPa 0,0 l/m 0,00 h 0,00 h 0 W/m 19,4 km/h (3 Bft)
10.01.2015 21:00 5,4 C 3,4 C 78 % 1015,3 hPa 0,0 l/m 0,00 h 0,00 h 0 W/m 18,5 km/h (3 Bft)
10.01.2015 22:00 4,8 C 3,0 C 78 % 1015,5 hPa 0,0 l/m 0,00 h 0,00 h 0 W/m 17,3 km/h (3 Bft)
10.01.2015 23:00 4,2 C 2,7 C 79 % 1015,6 hPa 0,0 l/m 0,00 h 0,00 h 0 W/m 19,6 km/h (3 Bft)
11.01.2015 00:00 3,7 C 2,2 C 80 % 1015,5 hPa 0,0 l/m 0,00 h 0,00 h 0 W/m 17,1 km/h (3 Bft)
11.01.2015 01:00 3,4 C 2,0 C 82 % 1015,1 hPa 0,0 l/m 0,00 h 0,00 h 0 W/m 19,8 km/h (3 Bft)
11.01.2015 02:00 3,4 C 2,1 C 81 % 1014,9 hPa 0,0 l/m 0,00 h 0,00 h 0 W/m 22,0 km/h (4 Bft)
11.01.2015 03:00 3,2 C 1,7 C 82 % 1014,6 hPa 0,0 l/m 0,00 h 0,00 h 0 W/m 22,1 km/h (4 Bft)
11.01.2015 04:00 3,1 C 1,7 C 83 % 1014,0 hPa 0,0 l/m 0,00 h 0,00 h 0 W/m 24,7 km/h (4 Bft)
11.01.2015 05:00 2,8 C 1,6 C 85 % 1013,9 hPa 0,0 l/m 0,00 h 0,00 h 0 W/m 28,3 km/h (4 Bft)
11.01.2015 06:00 2,8 C 1,7 C 85 % 1014,1 hPa 0,0 l/m 0,00 h 0,00 h 0 W/m 31,2 km/h (5 Bft)
11.01.2015 07:00 3,0 C 1,9 C 86 % 1014,4 hPa 0,0 l/m 0,00 h 0,00 h 0 W/m 33,2 km/h (5 Bft)
11.01.2015 08:00 3,3 C 2,1 C 86 % 1014,9 hPa 0,0 l/m 0,10 h 0,00 h 10 W/m 33,8 km/h (5 Bft)
11.01.2015 09:00 3,5 C 2,5 C 87 % 1015,8 hPa 0,0 l/m 0,30 h 0,00 h 40 W/m 35,3 km/h (5 Bft)
11.01.2015 10:00 4,0 C 3,2 C 87 % 1016,7 hPa 0,0 l/m 0,03 h 0,00 h 64 W/m 34,9 km/h (5 Bft)
11.01.2015 11:00 4,3 C 2,7 C 88 % 1017,7 hPa 0,2 l/m 0,07 h 0,77 h 81 W/m 30,5 km/h (5 Bft)
11.01.2015 12:00 4,7 C 3,4 C 85 % 1018,4 hPa 0,0 l/m 0,00 h 0,17 h 72 W/m 32,9 km/h (5 Bft)
11.01.2015 13:00 5,3 C 4,2 C 82 % 1018,7 hPa 0,0 l/m 0,00 h 0,00 h 77 W/m 32,7 km/h (5 Bft)
11.01.2015 14:00 5,4 C 4,3 C 81 % 1018,9 hPa 0,0 l/m 0,00 h 0,00 h 53 W/m 33,1 km/h (5 Bft)
11.01.2015 15:00 5,9 C 4,5 C 78 % 1019,5 hPa 0,0 l/m 0,00 h 0,00 h 45 W/m 34,7 km/h (5 Bft)
11.01.2015 16:00 5,9 C 4,4 C 78 % 1020,0 hPa 0,0 l/m 0,00 h 0,00 h 13 W/m 31,9 km/h (5 Bft)
11.01.2015 17:00 5,8 C 4,4 C 79 % 1020,5 hPa 0,0 l/m 0,00 h 0,00 h 0 W/m 33,1 km/h (5 Bft)
11.01.2015 18:00 5,5 C 3,9 C 80 % 1020,7 hPa 0,0 l/m 0,00 h 0,00 h 0 W/m 34,6 km/h (5 Bft)
11.01.2015 19:00 5,5 C 4,1 C 79 % 1021,2 hPa 0,0 l/m 0,00 h 0,00 h 0 W/m 36,1 km/h (5 Bft)
11.01.2015 20:00 5,8 C 4,1 C 80 % 1021,5 hPa 0,2 l/m 0,00 h 0,33 h 0 W/m 40,5 km/h (6 Bft)
11.01.2015 21:00 5,5 C 3,3 C 87 % 1021,6 hPa 0,2 l/m 0,00 h 0,93 h 0 W/m 32,0 km/h (5 Bft)
11.01.2015 22:00 5,5 C 3,7 C 89 % 1020,9 hPa 0,0 l/m 0,00 h 0,03 h 0 W/m 30,5 km/h (5 Bft)
11.01.2015 23:00 6,1 C 4,3 C 87 % 1020,9 hPa 0,0 l/m 0,00 h 0,00 h 0 W/m 32,6 km/h (5 Bft)
Min-Datum _ 06.01.15 05.01.15 10.01.15 10.01.15 - - - - 05.01.15
_ Min-Zeit 06:50 05:14 20:10 15:00 - - - - 17:22
Minimum _ -1,1 C -2,2 C 75 % 1007,0 hPa - - - - 2,1 km/h (1 Bft)
Max-Datum _ 10.01.15 09.01.15 09.01.15 05.01.15 08.01.15 05.01.15 06.01.15 06.01.15 10.01.15
_ Max-Zeit 00:58 23:58 23:00 00:00 15:00 08:52 22:04 13:20 11:48
Maximum _ 13,7 C 11,7 C 99 % 1036,2 hPa 2,4 l/m 0,03 h 0,03 h 275 W/m 83,7 km/h
W-SW (9 Bft)
Durchschnitt _ 5,4 C 3,9 C 90 % 1021,6 hPa #27,2 l/m #16:48 h #28:28 h 67 W/m 24,9 km/h (4 Bft)
© 2015 W. Hausmann